Location: Roland
(31.1349°N, 85.4372°W)
Time: 02:01:43
(UTC+00:00)

Vanguard 1 Rocket - Pass Details

Date: 16 October 2022
Orbit: 650 x 4225 km, 34.3° (Epoch: 06 December)

Event Time Altitude Azimuth Distance (km) Brightness Sun altitude
Rises 04:16:44 0° 291° (WNW) 7,688 12.5 -62.3°
Reaches altitude 10° 04:22:52 10° 287° (WNW) 6,167 11.8 -63.1°
Enters shadow 04:30:35 27° 276° (W) 4,143 10.7 -64.1°
